Location: Roanoke
(37.2710°N, 79.9420°W)
Time: 21:33:42
(UTC-05:00)

S-56A Canister/Altair - Pass Details

Date: 25 November 2019
Orbit: 632 x 2500 km, 38.9° (Epoch: 14 December)

Event Time Altitude Azimuth Distance (km) Brightness Sun altitude
Rises 17:01:03 0° 265° (W) 5,725 13.6 -0.3°
Reaches altitude 10° 17:05:12 10° 266° (W) 4,487 12.9 -1.0°
Maximum altitude 17:16:55 82° 354° (N) 1,501 9.0 -3.1°
Drops below altitude 10° 17:24:26 10° 83° (E) 2,983 9.9 -4.5°
Enters shadow 17:25:46 - 84° (E) 3,431 10.2 -4.8°
Sets 17:26:41 0° 84° (E) 3,745 - -4.9°
